Regional Weather Roundup
Issued by NWS Memphis, TN

Home | Current Version | Previous Version | Text Only | Print | Product List | Glossary On
Versions: 1 2 3 4 5 6 7 8 9 10 11 12 13 14 15 16 17 18 19 20 21 22 23 24 25 26 27 28 29 30 31 32 33 34 35 36 37 38 39 40 41 42 43 44 45 46 47 48 49 50
000
ASUS44 KMEG 050210
RWRMEG
MEMPHIS CWA HOURLY WEATHER ROUNDUP
NATIONAL WEATHER SERVICE MEMPHIS TN
900 PM CDT TUE AUG 04 2015

...WEST TENNESSEE...

CITY           SKY/WX    TMP DP  RH WIND       PRES   REMARKS
MEMPHIS INTL   CLOUDY    90  68  48 E7        29.97R HX  94
NWS MEMPHIS      N/A     82 N/A N/A MISG        N/A
JACKSON        MOCLDY    81  73  76 CALM      29.99R
LEXINGTON      CLEAR     79  75  89 CALM      29.99R
DYERSBURG        N/A    N/A N/A N/A MISG        N/A
UNION CITY     CLEAR     81  75  83 CALM      29.97R
PARIS          CLEAR     77  73  88 CALM      30.00S


...EASTERN ARKANSAS...

CITY           SKY/WX    TMP DP  RH WIND       PRES   REMARKS
JONESBORO      CLOUDY    80  73  79 NE3       29.95R
WEST MEMPHIS   MOCLDY    82  73  74 CALM      29.95R
BATESVILLE     CLOUDY    82  72  69 W6        29.97R
NEWPORT        CLOUDY    83  76  79 E6        29.96R HX  91
WALNUT RIDGE   CLOUDY    84  73  70 CALM      29.96R HX  91
BLYTHEVILLE    CLOUDY    84  75  74 CALM      29.97R HX  92
SEARCY         CLOUDY    84  72  67 CALM      29.96R
STUTTGART      CLOUDY    88  70  55 E6        29.95R HX  92
PINE BLUFF     CLOUDY    85  72  65 CALM      29.94R HX  91
MONTICELLO     PTCLDY    85  75  72 CALM      29.94R HX  93


...NORTH MISSISSIPPI...

CITY           SKY/WX    TMP DP  RH WIND       PRES   REMARKS
TUPELO         CLEAR     86  73  65 NE3       29.97R HX  93
OLIVE BRANCH     N/A     84  70  61 E3        29.98R
TUNICA         PTCLDY    81  73  78 NE3       29.96R
CLARKSDALE     PTCLDY    84  75  74 NE3       29.96R HX  92
CORINTH        CLEAR     81  77  89 CALM      29.98R
GREENWOOD      CLEAR     80  73  79 NE3       29.95R
COLUMBUS       CLOUDY    84  74  71 CALM      29.96R HX  91
STARKVILLE     FAIR      79  70  73 CALM      29.97R
GOLDEN TRIANGL CLEAR     88  68  51 CALM      29.97R HX  91


...SOUTHEAST MISSOURI...

CITY           SKY/WX    TMP DP  RH WIND       PRES   REMARKS
WEST PLAINS    CLOUDY    77  65  66 N7        30.02R
POPLAR BLUFF   CLOUDY    82  78  88 CALM      29.96R HX  91
CAPE GIRARDEAU CLOUDY    82  74  76 NE8       29.96R


...NORTHWEST ALABAMA...

CITY           SKY/WX    TMP DP  RH WIND       PRES   REMARKS
MUSCLE SHOALS  CLEAR     80  70  71 CALM      30.01R


...MIDDLE TENNESSEE...

CITY           SKY/WX    TMP DP  RH WIND       PRES   REMARKS
NASHVILLE      MOCLDY    87  67  51 CALM      30.01R HX  90
CLARKSVILLE    MOCLDY    81  70  69 NE6       30.01R
COLUMBIA       CLEAR     82  75  78 CALM      30.00R


...WESTERN KENTUCKY...

CITY           SKY/WX    TMP DP  RH WIND       PRES   REMARKS
PADUCAH        CLOUDY    79  69  71 CALM      29.98R
FORT CAMPBELL  MOCLDY    78  70  77 N8        30.01R


...CENTRAL ARKANSAS...

CITY           SKY/WX    TMP DP  RH WIND       PRES   REMARKS
LITTLE ROCK    MOCLDY    85  69  58 N3        29.94R


SKY/WX REPORTED AS FAIR MEANS FEW OR NO CLOUDS BELOW
12 THOUSAND FEET.



USA.gov is the U.S. government's official web portal to all federal, state and local government web resources and services.